Location: Hamilton
(37.7830°S, 175.2830°E)
Time: 16:37:44
(UTC+13:00)

USA 186 - Pass Details

Date: 24 January 2019
Orbit: 262 x 443 km, 96.9° (Epoch: 04 October)

Event Time Altitude Azimuth Distance (km) Brightness Sun altitude
Rises 21:24:41 0° 162° (SSE) 2,241 5.7 -8.8°
Reaches altitude 10° 21:26:46 10° 155° (SSE) 1,352 4.4 -9.2°
Maximum altitude 21:29:31 41° 82° (E) 516 1.8 -9.6°
Drops below altitude 10° 21:32:03 10° 9° (N) 1,251 3.8 -10.1°
Enters shadow 21:32:28 - 6° (N) 1,425 4.1 -10.1°
